Current Version              Previous Version:    01  02  03  04  05  06  07  08  09  10  11  12  13  14  15  16  17  18  19  20  21  22  23  24  25  26  27  28  29  30  
   31  32  33  34  35  36  37  38  39  40  41  42  43  44  45  46  47  48  49  50  51  52  53  54  55  56  57  58  59  60  

[Printable]
661
ASUS44 KFWD 210910
RWRTX
NORTH TEXAS HOURLY WEATHER ROUNDUP
NATIONAL WEATHER SERVICE FORT WORTH TX
400 AM CDT SUN SEP 21 2014

NOTE: "FAIR" INDICATES FEW OR NO CLOUDS BELOW 12,000 FEET WITH NO
SIGNIFICANT WEATHER AND/OR OBSTRUCTIONS TO VISIBILITY.

TXZ118-119-211000-
DALLAS/FORT WORTH METROPLEX

CITY           SKY/WX    TMP DP  RH WIND       PRES   REMARKS
DFW AIRPORT    CLEAR     73  63  70 CALM      30.01S
DALLAS LOVE    CLEAR     74  64  71 CALM      30.02R
FTW MEACHAM    CLEAR     74  63  68 CALM      30.02S
DAL-EXECUTIVE  CLEAR     74  64  71 CALM      30.02S
FTW-ALLIANCE   CLEAR     67  61  81 CALM      30.02S
FTW-NAS-JRB    CLEAR     75  66  73 CALM      30.06S
FTW-SPINKS       N/A     64  61  89 CALM      30.04S
ARLINGTON      CLEAR     67  63  87 CALM      30.02S
GRAND PRAIRIE  CLEAR     73  62  67 S3        30.03S
ADDISON        CLEAR     76  63  63 CALM      30.03S
MESQUITE       CLEAR     67  63  85 CALM      30.02S
LANCASTER      CLEAR     66  61  85 CALM      30.02F
$$

TXZ091>094-102>105-117-120-121-131>134-211000-
NORTH CENTRAL TEXAS

CITY           SKY/WX    TMP DP  RH WIND       PRES   REMARKS
SHRMAN/DENISON CLEAR     71  63  77 CALM      30.05S
GAINESVILLE    CLEAR     70  63  77 CALM      30.06S
BOWIE          CLEAR     67  63  86 CALM      30.05R
BRIDGEPORT     CLEAR     65  63  91 CALM      30.05S
DECATUR        CLEAR     74  62  64 S3        30.04S
DENTON         CLEAR     66  61  84 NW5       30.02S
MCKINNEY       CLEAR     67  63  87 N6        30.03R
GREENVILLE     CLEAR     68  64  88 CALM      30.02S
ROCKWALL       CLEAR     70  65  84 E3        30.02S
TERRELL        CLEAR     69  66  90 CALM      30.02S
WAXAHACHIE     CLEAR     68  62  80 CALM      30.03F
CLEBURNE       CLEAR     72  68  88 CALM      30.04S
GRANBURY       CLEAR     70  66  86 CALM      30.04S
$$

TXZ083>090-098>101-113>116-127>130-139>142-154-155-211000-
WESTERN NORTH TEXAS

CITY           SKY/WX    TMP DP  RH WIND       PRES   REMARKS
WICHITA FALLS  CLEAR     73  67  81 S3        30.03S
WF-KICKAPOO    CLEAR     70  67  88 S3        30.04S
VERNON         CLEAR     73  68  84 CALM      30.05R
ABILENE        MOCLDY    72  70  93 CALM      30.06S
ABILENE-DYESS  CLOUDY    72  64  77 S5        30.05S
BRECKENRIDGE   CLEAR     73  67  80 SE7       30.04S
GRAHAM         CLEAR     70  64  79 SE3       30.03S
MINERAL WELLS  CLEAR     69  63  81 SE5       30.02F
STEPHENVILLE   CLEAR     71  64  79 CALM      30.07F
COMANCHE       CLEAR     69  68  96 NE5       30.05R
BROWNWOOD      PTCLDY    72  70  94 CALM      30.04S
COLEMAN        MOCLDY    73  69  88 CALM      30.06S
BRADY          CLEAR     70  70 100 CALM      30.05S
$$

TXZ143>147-156>162-174-175-211000-
CENTRAL TEXAS

CITY           SKY/WX    TMP DP  RH WIND       PRES   REMARKS
WACO           CLEAR     69  66  90 NE3       30.01S
WACO-MCGREGOR  CLEAR     68  61  77 CALM      30.03R
HILLSBORO      CLEAR     73  64  74 E6        30.03R
CORSICANA      CLEAR     71  66  84 E3        30.03S
MEXIA          CLEAR     71  67  88 CALM      30.02R
HEARNE         CLEAR     70  69  96 CALM      30.01R
CAMERON        CLEAR     72  70  93 CALM      30.01S
TEMPLE         PTCLDY    72  64  78 CALM      30.01R
KILLEEN        CLEAR     72  68  88 S3        30.02S
KILLEEN-SKYLRK PTCLDY    72  64  78 CALM      30.02R
FORT HOOD      CLEAR     74  69  85 CALM      30.02S
GATESVILLE     PTCLDY    70  68  94 CALM      30.05R
HAMILTON       CLEAR     71  66  85 E10       30.05R
LAMPASAS       CLEAR     71  69  95 CALM      30.02F
$$

TXZ095>097-106>112-122>126-135>138-148>153-164>167-211000-
EAST TEXAS

CITY           SKY/WX    TMP DP  RH WIND       PRES   REMARKS
PARIS          CLEAR     72  63  73 CALM      30.03S
SULPHUR SPRNGS CLEAR     70  66  87 CALM      30.04S
MOUNT PLEASANT CLEAR     68  67  98 CALM      30.03S
GILMER         CLEAR     70  68  94 CALM      30.03S
MINEOLA        CLEAR     68  68 100 CALM      30.03S
TYLER          CLEAR     72  66  81 CALM      30.02S
LONGVIEW       CLEAR     69  66  90 CALM      30.01S
MARSHALL       CLEAR     68  65  88 CALM      30.03S
ATHENS         CLEAR     64  63  94 CALM      30.01S
PALESTINE      CLEAR     69  67  95 CALM      30.02F
JACKSONVILLE   CLEAR     73  66  79 CALM      30.05R
HENDERSON      CLEAR     67  66  99 CALM      30.03S FOG
NACOGDOCHES    CLEAR     64  63  94 CALM      30.02R
LUFKIN         CLEAR     70  66  87 CALM      30.00S FOG
$$

SUPPLEMENTAL OBSERVATIONS (CENTRAL)

CITY           SKY/WX    TMP DP  RH WIND       PRES   REMARKS
PAT MAYSE LAKE   N/A     70  68  94 N2          N/A
GREENVILLE       N/A     70  66  88 W2          N/A
CEDAR HILL       N/A     72  63  73 S1          N/A
MCGREGOR         N/A     70  66  88 CALM        N/A
$$

SUPPLEMENTAL OBSERVATIONS (WEST)

CITY           SKY/WX    TMP DP  RH WIND       PRES   REMARKS
MILLERS CREEK    N/A     72  64  78 SW2         N/A
HAMBY            N/A     72  68  88 SE2         N/A
IVIE RESERVOIR   N/A     73  68  83 E3          N/A
COLORADO BEND    N/A     70  66  88 CALM        N/A
$$

SUPPLEMENTAL OBSERVATIONS (EAST)

CITY           SKY/WX    TMP DP  RH WIND       PRES   REMARKS
CLARKSVILLE      N/A     70  66  88 CALM        N/A
GILMER           N/A     66  63  88 CALM        N/A
HENDERSON        N/A     66  63  88 CALM        N/A
LUFKIN           N/A     68  64  88 MISG        N/A
N SABINE NF      N/A     64  61  88 MISG        N/A
$$

SUPPLEMENTAL OBSERVATIONS ARE A COLLECTION OF AUTOMATED INSTRUMENTS
THAT ARE MAINTAINED BY A VARIETY OF FEDERAL AND STATE AGENCIES.
CERTAIN ELEMENTS...SUCH AS HUMIDITY VALUES AND SUSTAINED WIND
SPEEDS...MAY BE APPROXIMATED.